Regional Weather Roundup
Issued by NWS Glasgow, MT

Home | Current Version | Previous Version | Text Only | Print | Product List | Glossary On
Versions: 1 2 3 4 5 6 7 8 9 10 11 12 13 14 15 16 17 18 19 20 21 22 23 24 25 26 27 28 29 30 31 32 33 34 35 36 37 38 39 40 41 42 43 44 45 46 47 48 49 50
000
ASUS45 KGGW 260215
RWRGGW
HOURLY REGIONAL WEATHER ROUNDUP FOR NORTHEAST MONTANA
NATIONAL WEATHER SERVICE GLASGOW MONTANA
700 PM MST SAT FEB 25 2017

NOTE: "FAIR" INDICATES FEW OR NO CLOUDS BELOW 12,000 FEET WITH NO
SIGNIFICANT WEATHER AND/OR OBSTRUCTIONS TO VISISBILITY.

NORTHEAST MONTANA


CITY           SKY/WX    TMP DP  RH WIND       PRES   REMARKS
GLASGOW        MOCLDY    20  15  81 E8        29.66S
PLENTYWOOD       N/A     11  10  96 N5          N/A
WOLF POINT     PTCLDY    17  12  80 NE7       29.71S
JORDAN           N/A     27  19  72 W5        29.66S
WINNETT          N/A     25  21  85 S7G16       N/A
SIDNEY         CLOUDY    18  14  84 N10       29.70R
GLENDIVE       CLOUDY    26  21  81 NW10      29.67S
MALTA            N/A     25  21  85 E7G16       N/A
SCOBEY           N/A      6  -3  66 CALM      29.67F

FORT PECK REPORTS


CITY           SKY/WX    TMP DP  RH WIND       PRES   REMARKS
FORT PECK        N/A     23  21  92 NE9         N/A
THE PINES        N/A     26  23  88 CALM        N/A

SOUTHEAST MONTANA


CITY           SKY/WX    TMP DP  RH WIND       PRES   REMARKS
BILLINGS       PTCLDY    27  14  58 W20       29.68S
MILES CITY     MOCLDY    27  18  69 NW6       29.69R
BAKER          CLOUDY    25  20  81 W10       29.66S
LIVINGSTON     CLOUDY    26   7  44 W18G33    29.71R

CENTRAL MONTANA


CITY           SKY/WX    TMP DP  RH WIND       PRES   REMARKS
HAVRE          CLOUDY    28  19  69 W7        29.62F
LEWISTOWN      CLOUDY    20   8  60 SW7       29.62F
GREAT FALLS    CLOUDY    26   6  42 SW16G26   29.64F
CUT BANK       PTCLDY    24  12  60 W31G40    29.56F
HELENA         CLOUDY    28   7  41 W16G24    29.76S
BUTTE          CLOUDY    21   2  43 W7        29.76S
BOZEMAN        CLOUDY    25  10  53 CALM      29.78R

WESTERN MONTANA


CITY           SKY/WX    TMP DP  RH WIND       PRES   REMARKS
MISSOULA       MOCLDY    27  14  58 NW5       29.88F
KALISPELL      NOT AVBL

NORTH DAKOTA


CITY           SKY/WX    TMP DP  RH WIND       PRES   REMARKS
WILLISTON      CLOUDY    14  11  87 N7        29.70S
DICKINSON      CLOUDY    20  16  84 W9        29.61F
MINOT          LGT SNOW  17  13  84 N8        29.69S VSB 3/4
BISMARCK       CLOUDY    24  20  84 S6        29.68F

SOUTHERN SASKATCHEWAN


CITY           SKY/WX    TMP DP  RH WIND       PRES   REMARKS
REGINA         PTCLDY     9   3  78 S3        29.68F
ESTEVAN        PTCLDY     1  -2  85 N9        29.70S
SWIFT CURRENT  FLURRIES  14  12  92 S7        29.59F




USA.gov is the U.S. government's official web portal to all federal, state and local government web resources and services.